Powrót do katalogu

DELTA 1 DEB

AktywnyUNKNOWN
NORAD 12647·DEBRIS·🇺🇸 United States

Wystrzelony Jul 29, 1976 z Vandenberg Space Force Base

Loading…

Następne Przeloty (najbliższe 24 godziny)

TLE

ŚwieżeSource: Space-Track

Epoka: Sep 14, 2026, 14:57 UTC

1 12647U 76077EA  26257.62349983 -.00000837  00000-0 -97231-2 0  9997
2 12647 100.6822 314.8786 0369306  67.6746  83.0921 11.86849276 98531

Śledź DELTA 1 DEB w czasie rzeczywistym z AllMySat

Download on the App Store